Change the Weather History Date:

Tuesday, April 24, 2012

  Actual Average Record
Temperature  
Mean Temperature 49 °F 55 °F  
Max Temperature 64 °F 65 °F 82 °F (1976)
Min Temperature 34 °F 44 °F 28 °F (1974)
Degree Days  
Heating Degree Days 16 11  
Month to date heating degree days 290 362  
Since 1 July heating degree days 4541 5532  
Cooling Degree Days 0 1  
Month to date cooling degree days 4 7  
Year to date cooling degree days 41 8  
Moisture  
Dew Point 18 °F    
Average Humidity 34    
Maximum Humidity 51    
Minimum Humidity 16    
Precipitation  
Precipitation 0.00 in 0.13 in 1.41 in (1970)
Month to date precipitation 0.74 2.94  
Year to date precipitation 7.90 10.43  
Sea Level Pressure  
Sea Level Pressure 29.73 in    
Wind  
Wind Speed 12 mph (WNW)    
Max Wind Speed 26 mph    
Max Gust Speed 37 mph    
Visibility 10 miles    
Events      
T = Trace of Precipitation, MM = Missing Value Source: NWS Daily Summary

Daily Weather History Graph

Daily Weather History Graph

Search for Another Location

Airport or City:

Trip Planner

Search our weather history database for the weather conditions in past years. The results will help you decide how hot, cold, wet, or windy it might be!

Date:

Astronomy

Apr. 24, 2012 Rise Set
Actual Time 6:49 AM EDT 8:30 PM EDT
Civil Twilight 6:20 AM EDT 8:59 PM EDT
Nautical Twilight 5:45 AM EDT 9:34 PM EDT
Astronomical Twilight 5:08 AM EDT 10:11 PM EDT
Moon 8:44 AM EDT (4/24) 11:49 PM EDT (4/24)
Length of Visible Light 14h 38m
Length of Day
13h 40m
Waxing Crescent, 10% of the Moon is Illuminated
Apr 24
Waxing Crescent
Apr 29
First Quarter
May 5
Full
May 12
Last Quarter
May 20
New

Hourly Weather History & Observations

Time (EDT) Temp. Windchill Dew Point Humidity Pressure Visibility Wind Dir Wind Speed Gust Speed Precip Events Conditions
12:53 AM 39.0 °F 34.0 °F 15.1 °F 38% 29.75 in 10.0 mi West 6.9 mph - N/A   Clear
1:53 AM 39.0 °F 32.3 °F 16.0 °F 39% 29.73 in 10.0 mi West 10.4 mph - N/A   Clear
2:53 AM 37.9 °F 30.9 °F 16.0 °F 41% 29.72 in 10.0 mi West 10.4 mph - N/A   Clear
3:53 AM 37.0 °F 29.8 °F 17.1 °F 44% 29.72 in 10.0 mi WNW 10.4 mph - N/A   Clear
4:53 AM 36.0 °F 29.0 °F 17.1 °F 46% 29.72 in 10.0 mi West 9.2 mph - N/A   Clear
5:53 AM 34.0 °F 26.6 °F 18.0 °F 52% 29.72 in 10.0 mi West 9.2 mph - N/A   Clear
6:53 AM 35.1 °F 28.6 °F 17.1 °F 48% 29.72 in 10.0 mi West 8.1 mph - N/A   Clear
7:53 AM 39.0 °F 32.8 °F 18.0 °F 43% 29.73 in 10.0 mi WNW 9.2 mph - N/A   Clear
8:53 AM 46.0 °F 40.2 °F 18.0 °F 33% 29.74 in 10.0 mi WNW 12.7 mph 18.4 mph N/A   Clear
9:53 AM 51.1 °F - 18.0 °F 27% 29.74 in 10.0 mi NW 18.4 mph 29.9 mph N/A   Clear
10:53 AM 55.0 °F - 17.1 °F 23% 29.75 in 10.0 mi NW 19.6 mph 31.1 mph N/A   Clear
11:53 AM 57.9 °F - 17.1 °F 20% 29.76 in 10.0 mi NW 20.7 mph 32.2 mph N/A   Clear
12:53 PM 60.1 °F - 17.1 °F 19% 29.75 in 10.0 mi NNW 20.7 mph 32.2 mph N/A   Clear
1:53 PM 60.1 °F - 18.0 °F 20% 29.73 in 10.0 mi WNW 18.4 mph 31.1 mph N/A   Clear
2:53 PM 63.0 °F - 16.0 °F 16% 29.72 in 10.0 mi NNW 20.7 mph 29.9 mph N/A   Clear
3:53 PM 63.0 °F - 16.0 °F 16% 29.71 in 10.0 mi NNW 20.7 mph 25.3 mph N/A   Clear
4:53 PM 63.0 °F - 16.0 °F 16% 29.70 in 10.0 mi West 12.7 mph 25.3 mph N/A   Clear
5:53 PM 62.1 °F - 15.1 °F 16% 29.70 in 10.0 mi WNW 13.8 mph 23.0 mph N/A   Clear
6:53 PM 60.1 °F - 16.0 °F 18% 29.71 in 10.0 mi WNW 15.0 mph - N/A   Clear
7:53 PM 57.9 °F - 17.1 °F 20% 29.70 in 10.0 mi West 8.1 mph - N/A   Clear
8:53 PM 55.0 °F - 21.0 °F 27% 29.72 in 10.0 mi West 9.2 mph - N/A   Partly Cloudy
9:53 PM 52.0 °F - 23.0 °F 32% 29.74 in 10.0 mi NNW 3.5 mph - N/A   Scattered Clouds
10:53 PM 52.0 °F - 26.1 °F 37% 29.75 in 10.0 mi Calm Calm - N/A   Overcast
11:53 PM 50.0 °F - 30.0 °F 46% 29.76 in 10.0 mi South 3.5 mph - N/A   Overcast